This is the latest recevied weather packets stored in our database for station/object KD8BMB. If no packets are shown the sender has not sent any weather packets the latest 10 day(s).
| Time | Temp. | Humidity | Pressure | Rain* | Wind** | Luminosity | Snow |
|---|---|---|---|---|---|---|---|
| 1778081708 | 8.89° C | 62% | 1013.3 hPa | 0 mm | - | 255 W/m² | - |
| 1778081406 | 8.33° C | 63% | 1013.4 hPa | 0 mm | - | 861 W/m² | - |
| 1778081103 | 8.33° C | 64% | 1013.2 hPa | 0 mm | - | 250 W/m² | - |
| 1778080801 | 8.89° C | 63% | 1013.2 hPa | 0 mm | - | 196 W/m² | - |
| 1778080498 | 8.89° C | 63% | 1013.1 hPa | 0 mm | - | 479 W/m² | - |
| 1778080195 | 7.78° C | 64% | 1013.1 hPa | 0 mm | - | 377 W/m² | - |
| 1778079891 | 7.78° C | 67% | 1013.1 hPa | 0 mm | - | 592 W/m² | - |
| 1778079588 | 7.78° C | 67% | 1013.2 hPa | 0 mm | - | 277 W/m² | - |
| 1778079285 | 7.78° C | 67% | 1013.1 hPa | 0 mm | - | 266 W/m² | - |
| 1778078982 | 8.33° C | 66% | 1013.2 hPa | 0 mm | - | 294 W/m² | - |
| 1778078679 | 7.78° C | 67% | 1013 hPa | 0 mm | - | 710 W/m² | - |
| 1778078377 | 7.78° C | 67% | 1013.2 hPa | 0 mm | - | 262 W/m² | - |
| 1778078074 | 7.78° C | 66% | 1012.7 hPa | 0 mm | - | 236 W/m² | - |
| 1778077772 | 7.78° C | 65% | 1013 hPa | 0 mm | - | 197 W/m² | - |
| 1778077470 | 8.33° C | 65% | 1012.9 hPa | 0 mm | - | 242 W/m² | - |
| 1778077168 | 8.33° C | 67% | 1012.5 hPa | 0 mm | - | 574 W/m² | - |
| 1778076865 | 8.33° C | 67% | 1012.9 hPa | 0 mm | - | 552 W/m² | - |
| 1778076564 | 7.78° C | 69% | 1012.5 hPa | 0 mm | - | 680 W/m² | - |
| 1778076260 | 7.78° C | 68% | 1012.7 hPa | 0 mm | - | 636 W/m² | - |
| 1778075957 | 6.67° C | 71% | 1012.9 hPa | 0 mm | - | 218 W/m² | - |
| 1778075654 | 7.78° C | 71% | 1012.4 hPa | 0 mm | - | 643 W/m² | - |
| 1778075350 | 7.78° C | 70% | 1012.6 hPa | 0 mm | - | 606 W/m² | - |
| 1778075046 | 7.78° C | 71% | 1012.7 hPa | 0 mm | - | 528 W/m² | - |
| 1778074744 | 6.67° C | 72% | 1012.5 hPa | 0 mm | - | 511 W/m² | - |
| 1778074440 | 6.67° C | 73% | 1012.3 hPa | 0 mm | - | 470 W/m² | - |
* Rain latest hour (hover to see other rain measurements)
** Current wind speed in m/s (hover to see current wind gust speed)